Time,TemperatureF,DewpointF,PressureIn,WindDirection,WindDirectionDegrees,WindSpeedMPH,WindSpeedGustMPH,Humidity,HourlyPrecipIn,Conditions,Clouds,dailyrainin,SoftwareType,DateUTC
2013-02-05 00:03:00,47.5,44.4,29.93,SW,231,0.0,0.0,89,0.00,,,0.00,Wunderground v.1.15,2013-02-05 06:03:00,
2013-02-05 00:08:00,47.5,44.4,29.93,SW,231,0.0,0.0,89,0.00,,,0.00,Wunderground v.1.15,2013-02-05 06:08:00,
2013-02-05 00:13:00,47.5,44.7,29.93,SW,231,0.0,1.0,90,0.00,,,0.00,Wunderground v.1.15,2013-02-05 06:13:00,
2013-02-05 00:18:00,47.4,44.6,29.93,SW,231,0.0,1.0,90,0.00,,,0.00,Wunderground v.1.15,2013-02-05 06:18:00,
2013-02-05 00:24:00,47.3,44.5,29.93,SW,232,0.0,2.0,90,0.00,,,0.00,Wunderground v.1.15,2013-02-05 06:24:00,
2013-02-05 00:30:00,47.3,44.5,29.93,SW,232,0.0,2.0,90,0.00,,,0.00,Wunderground v.1.15,2013-02-05 06:30:00,
2013-02-05 00:35:00,47.3,44.5,29.93,SW,232,0.0,1.0,90,0.00,,,0.00,Wunderground v.1.15,2013-02-05 06:35:00,
2013-02-05 00:40:00,47.4,44.6,29.93,SW,232,0.0,1.0,90,0.00,,,0.00,Wunderground v.1.15,2013-02-05 06:40:00,
2013-02-05 00:50:00,47.4,44.6,29.93,SW,232,0.0,0.0,90,0.00,,,0.00,Wunderground v.1.15,2013-02-05 06:50:00,
2013-02-05 00:58:00,47.4,44.6,29.92,SW,232,0.0,0.0,90,0.00,,,0.00,Wunderground v.1.15,2013-02-05 06:58:00,
2013-02-05 01:04:00,47.3,44.5,29.93,SW,232,0.0,0.0,90,0.00,,,0.00,Wunderground v.1.15,2013-02-05 07:04:00,
2013-02-05 01:09:00,47.2,44.4,29.92,SW,232,0.0,0.0,90,0.00,,,0.00,Wunderground v.1.15,2013-02-05 07:09:00,
2013-02-05 01:14:00,46.9,44.4,29.92,SW,232,0.0,0.0,91,0.00,,,0.00,Wunderground v.1.15,2013-02-05 07:14:00,
2013-02-05 01:20:00,46.6,44.1,29.92,SW,232,0.0,0.0,91,0.00,,,0.00,Wunderground v.1.15,2013-02-05 07:20:00,
2013-02-05 01:26:00,46.2,44.0,29.92,SW,232,0.0,0.0,92,0.00,,,0.00,Wunderground v.1.15,2013-02-05 07:26:00,
2013-02-05 01:31:00,46.0,43.5,29.93,SW,232,0.0,0.0,91,0.00,,,0.00,Wunderground v.1.15,2013-02-05 07:31:00,
2013-02-05 01:37:00,45.8,43.6,29.93,SW,232,0.0,1.0,92,0.00,,,0.00,Wunderground v.1.15,2013-02-05 07:37:00,
2013-02-05 01:43:00,45.6,43.4,29.93,SW,232,1.0,1.0,92,0.00,,,0.00,Wunderground v.1.15,2013-02-05 07:43:00,
2013-02-05 01:49:00,45.7,43.8,29.93,SW,232,0.0,1.0,93,0.00,,,0.00,Wunderground v.1.15,2013-02-05 07:49:00,
2013-02-05 01:54:00,45.8,43.6,29.93,SW,232,0.0,0.0,92,0.00,,,0.00,Wunderground v.1.15,2013-02-05 07:54:00,
2013-02-05 01:59:00,45.8,43.6,29.93,SW,232,0.0,0.0,92,0.00,,,0.00,Wunderground v.1.15,2013-02-05 07:59:00,
2013-02-05 02:04:00,45.9,43.7,29.93,SW,232,0.0,0.0,92,0.00,,,0.00,Wunderground v.1.15,2013-02-05 08:04:00,
2013-02-05 02:09:00,45.9,43.7,29.92,SW,232,0.0,0.0,92,0.00,,,0.00,Wunderground v.1.15,2013-02-05 08:09:00,
2013-02-05 02:14:00,45.8,43.6,29.92,SW,232,0.0,0.0,92,0.00,,,0.00,Wunderground v.1.15,2013-02-05 08:14:00,
2013-02-05 02:19:00,45.7,43.5,29.92,SW,232,0.0,0.0,92,0.00,,,0.00,Wunderground v.1.15,2013-02-05 08:19:00,
2013-02-05 02:24:00,45.6,43.4,29.92,SW,232,0.0,0.0,92,0.00,,,0.00,Wunderground v.1.15,2013-02-05 08:24:00,
2013-02-05 02:29:00,45.5,43.6,29.93,SW,232,0.0,0.0,93,0.00,,,0.00,Wunderground v.1.15,2013-02-05 08:29:00,
2013-02-05 02:34:00,45.4,43.5,29.93,SW,232,0.0,0.0,93,0.00,,,0.00,Wunderground v.1.15,2013-02-05 08:34:00,
2013-02-05 02:40:00,45.4,43.5,29.93,SW,232,0.0,0.0,93,0.00,,,0.00,Wunderground v.1.15,2013-02-05 08:40:00,
2013-02-05 02:44:00,45.5,43.6,29.93,SW,232,0.0,0.0,93,0.00,,,0.00,Wunderground v.1.15,2013-02-05 08:44:00,
2013-02-05 02:52:00,45.5,43.6,29.93,SW,232,0.0,0.0,93,0.00,,,0.00,Wunderground v.1.15,2013-02-05 08:52:00,
2013-02-05 02:57:00,45.6,43.7,29.93,SW,232,0.0,0.0,93,0.00,,,0.00,Wunderground v.1.15,2013-02-05 08:57:00,
2013-02-05 03:02:00,45.7,43.8,29.93,SW,232,0.0,0.0,93,0.00,,,0.00,Wunderground v.1.15,2013-02-05 09:02:00,
2013-02-05 03:07:00,45.7,44.1,29.93,SW,232,0.0,0.0,94,0.00,,,0.00,Wunderground v.1.15,2013-02-05 09:07:00,
2013-02-05 03:12:00,45.7,43.8,29.93,SW,232,0.0,0.0,93,0.00,,,0.00,Wunderground v.1.15,2013-02-05 09:12:00,
2013-02-05 03:17:00,45.7,43.8,29.93,SW,232,0.0,1.0,93,0.00,,,0.00,Wunderground v.1.15,2013-02-05 09:17:00,
2013-02-05 03:22:00,45.7,43.8,29.93,SW,232,0.0,0.0,93,0.00,,,0.00,Wunderground v.1.15,2013-02-05 09:22:00,
2013-02-05 03:27:00,45.6,43.7,29.93,SW,232,0.0,0.0,93,0.00,,,0.00,Wunderground v.1.15,2013-02-05 09:27:00,
2013-02-05 03:32:00,45.6,43.7,29.93,SW,232,0.0,0.0,93,0.00,,,0.00,Wunderground v.1.15,2013-02-05 09:32:00,
2013-02-05 03:37:00,45.5,43.6,29.93,SW,232,0.0,0.0,93,0.00,,,0.00,Wunderground v.1.15,2013-02-05 09:37:00,
2013-02-05 03:42:00,45.4,43.5,29.93,SW,232,0.0,0.0,93,0.00,,,0.00,Wunderground v.1.15,2013-02-05 09:42:00,
2013-02-05 03:48:00,45.3,43.4,29.93,SW,232,0.0,0.0,93,0.00,,,0.00,Wunderground v.1.15,2013-02-05 09:48:00,
2013-02-05 03:53:00,45.1,43.2,29.93,SW,232,0.0,0.0,93,0.00,,,0.00,Wunderground v.1.15,2013-02-05 09:53:00,
2013-02-05 03:58:00,44.9,43.0,29.93,SW,232,0.0,0.0,93,0.00,,,0.00,Wunderground v.1.15,2013-02-05 09:58:00,
2013-02-05 04:03:00,44.7,42.8,29.93,SW,232,0.0,0.0,93,0.00,,,0.00,Wunderground v.1.15,2013-02-05 10:03:00,
2013-02-05 04:08:00,44.5,42.6,29.92,SW,232,0.0,0.0,93,0.00,,,0.00,Wunderground v.1.15,2013-02-05 10:08:00,
2013-02-05 04:14:00,44.3,42.4,29.93,SW,232,0.0,0.0,93,0.00,,,0.00,Wunderground v.1.15,2013-02-05 10:14:00,
2013-02-05 04:19:00,44.1,42.5,29.93,SW,232,0.0,0.0,94,0.00,,,0.00,Wunderground v.1.15,2013-02-05 10:19:00,
2013-02-05 04:23:00,43.9,42.3,29.92,SW,232,0.0,0.0,94,0.00,,,0.00,Wunderground v.1.15,2013-02-05 10:23:00,
2013-02-05 04:29:00,43.8,42.2,29.93,SW,232,0.0,0.0,94,0.00,,,0.00,Wunderground v.1.15,2013-02-05 10:29:00,
2013-02-05 04:34:00,43.6,42.0,29.93,SW,232,0.0,0.0,94,0.00,,,0.00,Wunderground v.1.15,2013-02-05 10:34:00,
2013-02-05 04:39:00,43.5,41.9,29.93,SW,232,0.0,0.0,94,0.00,,,0.00,Wunderground v.1.15,2013-02-05 10:39:00,
2013-02-05 04:44:00,43.4,41.8,29.93,SW,232,0.0,0.0,94,0.00,,,0.00,Wunderground v.1.15,2013-02-05 10:44:00,
2013-02-05 04:49:00,43.2,41.6,29.93,SW,232,0.0,0.0,94,0.00,,,0.00,Wunderground v.1.15,2013-02-05 10:49:00,
2013-02-05 04:54:00,43.0,41.4,29.93,SW,232,0.0,0.0,94,0.00,,,0.00,Wunderground v.1.15,2013-02-05 10:54:00,
2013-02-05 04:59:00,42.8,41.2,29.93,SW,232,0.0,0.0,94,0.00,,,0.00,Wunderground v.1.15,2013-02-05 10:59:00,
2013-02-05 05:04:00,42.6,41.0,29.93,SW,232,0.0,0.0,94,0.00,,,0.00,Wunderground v.1.15,2013-02-05 11:04:00,
2013-02-05 05:09:00,42.5,41.2,29.93,SW,232,0.0,0.0,95,0.00,,,0.00,Wunderground v.1.15,2013-02-05 11:09:00,
2013-02-05 05:14:00,42.2,40.6,29.94,SW,232,0.0,0.0,94,0.00,,,0.00,Wunderground v.1.15,2013-02-05 11:14:00,
2013-02-05 05:19:00,41.6,40.0,29.94,SW,232,0.0,1.0,94,0.00,,,0.00,Wunderground v.1.15,2013-02-05 11:19:00,
2013-02-05 05:24:00,41.2,39.6,29.94,SW,232,0.0,0.0,94,0.00,,,0.00,Wunderground v.1.15,2013-02-05 11:24:00,
2013-02-05 05:29:00,40.9,39.3,29.94,SW,232,0.0,0.0,94,0.00,,,0.00,Wunderground v.1.15,2013-02-05 11:29:00,
2013-02-05 05:34:00,40.9,39.6,29.94,SW,232,0.0,0.0,95,0.00,,,0.00,Wunderground v.1.15,2013-02-05 11:34:00,
2013-02-05 05:39:00,41.0,39.7,29.94,SW,232,0.0,0.0,95,0.00,,,0.00,Wunderground v.1.15,2013-02-05 11:39:00,
2013-02-05 05:44:00,41.0,41.0,29.94,SW,232,0.0,0.0,100,0.00,,,0.00,Wunderground v.1.15,2013-02-05 11:44:00,
2013-02-05 05:49:00,41.3,40.2,29.94,SW,232,0.0,0.0,96,0.00,,,0.00,Wunderground v.1.15,2013-02-05 11:49:00,
2013-02-05 05:54:00,41.5,40.4,29.94,SW,232,0.0,0.0,96,0.00,,,0.00,Wunderground v.1.15,2013-02-05 11:54:00,
2013-02-05 05:59:00,41.7,40.6,29.95,SW,232,0.0,0.0,96,0.00,,,0.00,Wunderground v.1.15,2013-02-05 11:59:00,
2013-02-05 06:05:00,41.9,40.8,29.95,SW,232,0.0,0.0,96,0.00,,,0.00,Wunderground v.1.15,2013-02-05 12:05:00,
2013-02-05 06:10:00,41.9,40.8,29.95,SW,232,0.0,0.0,96,0.00,,,0.00,Wunderground v.1.15,2013-02-05 12:10:00,
2013-02-05 06:15:00,41.8,40.7,29.95,SW,232,0.0,0.0,96,0.00,,,0.00,Wunderground v.1.15,2013-02-05 12:15:00,
2013-02-05 06:20:00,41.6,40.5,29.96,SW,232,0.0,0.0,96,0.00,,,0.00,Wunderground v.1.15,2013-02-05 12:20:00,
2013-02-05 06:25:00,41.6,40.5,29.96,SW,232,0.0,0.0,96,0.00,,,0.00,Wunderground v.1.15,2013-02-05 12:25:00,
2013-02-05 06:30:00,41.3,40.2,29.96,SW,232,0.0,0.0,96,0.00,,,0.00,Wunderground v.1.15,2013-02-05 12:30:00,
2013-02-05 06:36:00,41.1,39.8,29.96,SW,232,0.0,0.0,95,0.00,,,0.00,Wunderground v.1.15,2013-02-05 12:36:00,
2013-02-05 06:41:00,40.8,39.5,29.96,SW,232,0.0,0.0,95,0.00,,,0.00,Wunderground v.1.15,2013-02-05 12:41:00,
2013-02-05 06:46:00,40.6,39.5,29.96,SW,232,0.0,0.0,96,0.00,,,0.00,Wunderground v.1.15,2013-02-05 12:46:00,
2013-02-05 06:51:00,40.3,39.0,29.96,SW,232,0.0,0.0,95,0.00,,,0.00,Wunderground v.1.15,2013-02-05 12:51:00,
2013-02-05 06:56:00,39.9,38.6,29.97,SW,232,0.0,0.0,95,0.00,,,0.00,Wunderground v.1.15,2013-02-05 12:56:00,
2013-02-05 07:01:00,39.7,38.4,29.97,SW,232,0.0,0.0,95,0.00,,,0.00,Wunderground v.1.15,2013-02-05 13:01:00,
2013-02-05 07:06:00,39.8,38.8,29.97,SW,232,0.0,0.0,96,0.00,,,0.00,Wunderground v.1.15,2013-02-05 13:06:00,
2013-02-05 07:11:00,39.8,38.8,29.97,SW,232,0.0,0.0,96,0.00,,,0.00,Wunderground v.1.15,2013-02-05 13:11:00,
2013-02-05 07:16:00,39.9,38.9,29.97,SW,232,0.0,0.0,96,0.00,,,0.00,Wunderground v.1.15,2013-02-05 13:16:00,
2013-02-05 07:21:00,39.9,38.9,29.97,SW,232,0.0,0.0,96,0.00,,,0.00,Wunderground v.1.15,2013-02-05 13:21:00,
2013-02-05 07:26:00,39.8,38.8,29.98,SW,232,0.0,0.0,96,0.00,,,0.00,Wunderground v.1.15,2013-02-05 13:26:00,
2013-02-05 07:31:00,39.8,38.8,29.98,SW,232,0.0,0.0,96,0.00,,,0.00,Wunderground v.1.15,2013-02-05 13:31:00,
2013-02-05 07:37:00,39.8,38.8,29.98,SW,232,0.0,0.0,96,0.00,,,0.00,Wunderground v.1.15,2013-02-05 13:37:00,
2013-02-05 07:42:00,40.1,39.1,29.98,SW,232,0.0,0.0,96,0.00,,,0.00,Wunderground v.1.15,2013-02-05 13:42:00,
2013-02-05 07:47:00,40.3,39.3,29.99,SW,232,0.0,0.0,96,0.00,,,0.00,Wunderground v.1.15,2013-02-05 13:47:00,
2013-02-05 07:52:00,40.4,39.4,29.99,SW,232,0.0,0.0,96,0.00,,,0.00,Wunderground v.1.15,2013-02-05 13:52:00,
2013-02-05 07:57:00,40.3,39.3,29.99,SW,232,0.0,0.0,96,0.00,,,0.00,Wunderground v.1.15,2013-02-05 13:57:00,
2013-02-05 08:02:00,40.5,39.4,30.00,SW,232,0.0,0.0,96,0.00,,,0.00,Wunderground v.1.15,2013-02-05 14:02:00,
2013-02-05 08:07:00,40.7,39.9,30.00,SW,232,0.0,0.0,97,0.00,,,0.00,Wunderground v.1.15,2013-02-05 14:07:00,
2013-02-05 08:12:00,40.9,39.8,30.00,SW,232,0.0,0.0,96,0.00,,,0.00,Wunderground v.1.15,2013-02-05 14:12:00,
2013-02-05 08:17:00,41.1,40.3,30.00,SW,232,0.0,0.0,97,0.00,,,0.00,Wunderground v.1.15,2013-02-05 14:17:00,
2013-02-05 08:22:00,41.5,40.7,30.00,SW,232,0.0,0.0,97,0.00,,,0.00,Wunderground v.1.15,2013-02-05 14:22:00,
2013-02-05 08:27:00,42.1,41.3,30.00,SW,232,0.0,1.0,97,0.00,,,0.00,Wunderground v.1.15,2013-02-05 14:27:00,
2013-02-05 08:33:00,42.7,41.9,30.01,SW,232,1.0,1.0,97,0.00,,,0.00,Wunderground v.1.15,2013-02-05 14:33:00,
2013-02-05 08:38:00,43.2,42.4,30.01,SW,232,0.0,1.0,97,0.00,,,0.00,Wunderground v.1.15,2013-02-05 14:38:00,
2013-02-05 08:43:00,43.7,42.9,30.01,SW,232,1.0,1.0,97,0.00,,,0.00,Wunderground v.1.15,2013-02-05 14:43:00,
2013-02-05 08:48:00,44.4,43.6,30.01,SW,232,0.0,1.0,97,0.00,,,0.00,Wunderground v.1.15,2013-02-05 14:48:00,
2013-02-05 08:53:00,45.0,44.2,30.02,SW,232,0.0,1.0,97,0.00,,,0.00,Wunderground v.1.15,2013-02-05 14:53:00,
2013-02-05 08:59:00,45.5,44.7,30.01,SW,232,0.0,1.0,97,0.00,,,0.00,Wunderground v.1.15,2013-02-05 14:59:00,
2013-02-05 09:04:00,45.9,45.1,30.01,SW,232,0.0,3.0,97,0.00,,,0.00,Wunderground v.1.15,2013-02-05 15:04:00,
2013-02-05 09:09:00,46.1,45.3,30.01,SW,232,0.0,3.0,97,0.00,,,0.00,Wunderground v.1.15,2013-02-05 15:09:00,
2013-02-05 09:14:00,46.4,45.6,30.01,SW,232,1.0,2.0,97,0.00,,,0.00,Wunderground v.1.15,2013-02-05 15:14:00,
2013-02-05 09:19:00,46.7,45.9,30.02,SW,232,0.0,2.0,97,0.00,,,0.00,Wunderground v.1.15,2013-02-05 15:19:00,
2013-02-05 09:24:00,47.1,46.3,30.02,SW,231,2.0,3.0,97,0.00,,,0.00,Wunderground v.1.15,2013-02-05 15:24:00,
2013-02-05 09:29:00,47.4,46.6,30.02,WSW,247,0.0,3.0,97,0.00,,,0.00,Wunderground v.1.15,2013-02-05 15:29:00,
2013-02-05 09:39:00,48.8,47.4,30.02,WSW,246,1.0,2.0,95,0.00,,,0.00,Wunderground v.1.15,2013-02-05 15:39:00,
2013-02-05 09:46:00,49.5,47.0,30.03,WSW,249,1.0,1.0,91,0.00,,,0.00,Wunderground v.1.15,2013-02-05 15:46:00,
2013-02-05 09:51:00,49.8,47.3,30.02,WSW,249,2.0,2.0,91,0.00,,,0.00,Wunderground v.1.15,2013-02-05 15:51:00,
2013-02-05 09:56:00,50.8,48.0,30.02,WSW,250,0.0,2.0,90,0.00,,,0.00,Wunderground v.1.15,2013-02-05 15:56:00,
2013-02-05 10:01:00,50.8,46.8,30.02,South,189,1.0,2.0,86,0.00,,,0.00,Wunderground v.1.15,2013-02-05 16:01:00,
2013-02-05 10:06:00,50.9,47.5,30.02,SSW,195,2.0,3.0,88,0.00,,,0.00,Wunderground v.1.15,2013-02-05 16:06:00,
2013-02-05 10:11:00,51.3,47.9,30.03,SSW,195,2.0,2.0,88,0.00,,,0.00,Wunderground v.1.15,2013-02-05 16:11:00,
2013-02-05 10:16:00,51.6,47.5,30.02,SW,224,0.0,3.0,86,0.00,,,0.00,Wunderground v.1.15,2013-02-05 16:16:00,
2013-02-05 10:21:00,51.9,47.8,30.02,SW,223,2.0,2.0,86,0.00,,,0.00,Wunderground v.1.15,2013-02-05 16:21:00,
2013-02-05 10:26:00,52.6,48.5,30.02,SW,226,1.0,2.0,86,0.00,,,0.00,Wunderground v.1.15,2013-02-05 16:26:00,
2013-02-05 10:31:00,52.3,47.6,30.02,SW,230,1.0,3.0,84,0.00,,,0.00,Wunderground v.1.15,2013-02-05 16:31:00,
2013-02-05 10:36:00,52.7,47.7,30.02,SW,233,1.0,3.0,83,0.00,,,0.00,Wunderground v.1.15,2013-02-05 16:36:00,
2013-02-05 10:41:00,53.0,47.7,30.03,SW,227,3.0,3.0,82,0.00,,,0.00,Wunderground v.1.15,2013-02-05 16:41:00,
2013-02-05 10:46:00,53.6,48.6,30.03,SW,227,0.0,3.0,83,0.00,,,0.00,Wunderground v.1.15,2013-02-05 16:46:00,
2013-02-05 10:51:00,54.1,48.1,30.02,SW,227,0.0,1.0,80,0.00,,,0.00,Wunderground v.1.15,2013-02-05 16:51:00,
2013-02-05 10:56:00,54.5,49.4,30.02,West,265,3.0,4.0,83,0.00,,,0.00,Wunderground v.1.15,2013-02-05 16:56:00,
2013-02-05 11:01:00,54.3,48.6,30.02,SSW,208,2.0,2.0,81,0.00,,,0.00,Wunderground v.1.15,2013-02-05 17:01:00,
2013-02-05 11:06:00,54.4,48.7,30.02,SW,225,2.0,4.0,81,0.00,,,0.00,Wunderground v.1.15,2013-02-05 17:06:00,
2013-02-05 11:11:00,54.6,48.9,30.02,SW,222,1.0,1.0,81,0.00,,,0.00,Wunderground v.1.15,2013-02-05 17:11:00,
2013-02-05 11:17:00,54.9,49.2,30.02,WSW,257,2.0,4.0,81,0.00,,,0.00,Wunderground v.1.15,2013-02-05 17:17:00,
2013-02-05 11:22:00,55.4,49.7,30.02,West,265,2.0,3.0,81,0.00,,,0.00,Wunderground v.1.15,2013-02-05 17:22:00,
2013-02-05 11:27:00,56.5,49.4,30.02,WSW,245,1.0,5.0,77,0.00,,,0.00,Wunderground v.1.15,2013-02-05 17:27:00,
2013-02-05 11:32:00,56.4,49.3,30.02,West,275,0.0,2.0,77,0.00,,,0.00,Wunderground v.1.15,2013-02-05 17:32:00,
2013-02-05 11:37:00,56.7,49.2,30.01,WSW,246,2.0,5.0,76,0.00,,,0.00,Wunderground v.1.15,2013-02-05 17:37:00,
2013-02-05 11:42:00,57.0,49.2,30.01,South,171,0.0,2.0,75,0.00,,,0.00,Wunderground v.1.15,2013-02-05 17:42:00,
2013-02-05 11:47:00,57.7,50.5,30.01,WNW,283,2.0,4.0,77,0.00,,,0.00,Wunderground v.1.15,2013-02-05 17:47:00,
2013-02-05 11:52:00,57.6,49.7,30.01,SW,228,2.0,2.0,75,0.00,,,0.00,Wunderground v.1.15,2013-02-05 17:52:00,
2013-02-05 11:57:00,58.0,50.8,30.01,WNW,302,2.0,3.0,77,0.00,,,0.00,Wunderground v.1.15,2013-02-05 17:57:00,
2013-02-05 12:02:00,59.1,50.5,30.00,West,275,0.0,3.0,73,0.00,,,0.00,Wunderground v.1.15,2013-02-05 18:02:00,
2013-02-05 12:08:00,60.1,51.4,30.00,WNW,286,2.0,4.0,73,0.00,,,0.00,Wunderground v.1.15,2013-02-05 18:08:00,
2013-02-05 12:13:00,59.5,50.5,30.00,WNW,286,1.0,3.0,72,0.00,,,0.00,Wunderground v.1.15,2013-02-05 18:13:00,
2013-02-05 12:18:00,59.6,50.6,30.00,WSW,254,5.0,6.0,72,0.00,,,0.00,Wunderground v.1.15,2013-02-05 18:18:00,
2013-02-05 12:23:00,58.8,49.8,29.99,West,269,0.0,2.0,72,0.00,,,0.00,Wunderground v.1.15,2013-02-05 18:23:00,
2013-02-05 12:28:00,60.4,50.6,29.99,WNW,292,2.0,4.0,70,0.00,,,0.00,Wunderground v.1.15,2013-02-05 18:28:00,
2013-02-05 12:33:00,59.4,50.0,29.99,NW,315,2.0,4.0,71,0.00,,,0.00,Wunderground v.1.15,2013-02-05 18:33:00,
2013-02-05 12:38:00,60.4,50.2,29.99,NW,308,2.0,5.0,69,0.00,,,0.00,Wunderground v.1.15,2013-02-05 18:38:00,
2013-02-05 12:43:00,59.9,50.1,29.99,WSW,242,1.0,5.0,70,0.00,,,0.00,Wunderground v.1.15,2013-02-05 18:43:00,
2013-02-05 12:48:00,60.5,50.3,29.98,West,278,0.0,5.0,69,0.00,,,0.00,Wunderground v.1.15,2013-02-05 18:48:00,
2013-02-05 12:53:00,60.9,50.3,29.98,WNW,293,2.0,3.0,68,0.00,,,0.00,Wunderground v.1.15,2013-02-05 18:53:00,
2013-02-05 12:58:00,62.2,51.5,29.98,WNW,293,2.0,3.0,68,0.00,,,0.00,Wunderground v.1.15,2013-02-05 18:58:00,
2013-02-05 13:03:00,62.5,51.0,29.98,NW,304,1.0,1.0,66,0.00,,,0.00,Wunderground v.1.15,2013-02-05 19:03:00,
2013-02-05 13:08:00,61.4,49.9,29.98,West,274,0.0,4.0,66,0.00,,,0.00,Wunderground v.1.15,2013-02-05 19:08:00,
2013-02-05 13:13:00,62.0,50.9,29.98,WNW,288,0.0,2.0,67,0.00,,,0.00,Wunderground v.1.15,2013-02-05 19:13:00,
2013-02-05 13:18:00,62.3,50.0,29.98,West,265,1.0,4.0,64,0.00,,,0.00,Wunderground v.1.15,2013-02-05 19:18:00,
2013-02-05 13:23:00,62.0,50.1,29.97,WSW,242,2.0,6.0,65,0.00,,,0.00,Wunderground v.1.15,2013-02-05 19:23:00,
2013-02-05 13:28:00,62.2,49.4,29.97,West,265,1.0,6.0,63,0.00,,,0.00,Wunderground v.1.15,2013-02-05 19:28:00,
2013-02-05 13:33:00,62.6,49.4,29.97,South,187,5.0,6.0,62,0.00,,,0.00,Wunderground v.1.15,2013-02-05 19:33:00,
2013-02-05 13:38:00,63.3,49.6,29.97,NNW,340,2.0,6.0,61,0.00,,,0.00,Wunderground v.1.15,2013-02-05 19:38:00,
2013-02-05 13:43:00,63.3,48.7,29.97,NW,311,1.0,5.0,59,0.00,,,0.00,Wunderground v.1.15,2013-02-05 19:43:00,
2013-02-05 13:48:00,63.4,50.1,29.97,WNW,301,1.0,6.0,62,0.00,,,0.00,Wunderground v.1.15,2013-02-05 19:48:00,
2013-02-05 13:53:00,63.7,48.6,29.97,West,272,2.0,5.0,58,0.00,,,0.00,Wunderground v.1.15,2013-02-05 19:53:00,
2013-02-05 13:58:00,62.9,48.3,29.97,SW,218,0.0,6.0,59,0.00,,,0.00,Wunderground v.1.15,2013-02-05 19:58:00,
2013-02-05 14:03:00,63.4,48.8,29.96,SW,222,3.0,6.0,59,0.00,,,0.00,Wunderground v.1.15,2013-02-05 20:03:00,
2013-02-05 14:08:00,63.8,47.8,29.97,NW,306,3.0,6.0,56,0.00,,,0.00,Wunderground v.1.15,2013-02-05 20:08:00,
2013-02-05 14:13:00,64.0,47.5,29.97,SW,230,1.0,3.0,55,0.00,,,0.00,Wunderground v.1.15,2013-02-05 20:13:00,
2013-02-05 14:18:00,63.8,47.8,29.96,West,277,3.0,7.0,56,0.00,,,0.00,Wunderground v.1.15,2013-02-05 20:18:00,
2013-02-05 14:23:00,63.9,48.4,29.97,West,263,1.0,4.0,57,0.00,,,0.00,Wunderground v.1.15,2013-02-05 20:23:00,
2013-02-05 14:28:00,64.2,47.2,29.97,South,185,5.0,6.0,54,0.00,,,0.00,Wunderground v.1.15,2013-02-05 20:28:00,
2013-02-05 14:33:00,62.7,46.8,29.96,NW,309,3.0,4.0,56,0.00,,,0.00,Wunderground v.1.15,2013-02-05 20:33:00,
2013-02-05 14:38:00,63.5,47.5,29.96,West,277,3.0,6.0,56,0.00,,,0.00,Wunderground v.1.15,2013-02-05 20:38:00,
2013-02-05 14:43:00,64.4,47.4,29.96,WNW,287,7.0,7.0,54,0.00,,,0.00,Wunderground v.1.15,2013-02-05 20:43:00,
2013-02-05 14:49:00,64.1,47.6,29.96,WNW,303,1.0,7.0,55,0.00,,,0.00,Wunderground v.1.15,2013-02-05 20:49:00,
2013-02-05 14:54:00,63.7,47.2,29.96,West,273,1.0,6.0,55,0.00,,,0.00,Wunderground v.1.15,2013-02-05 20:54:00,
2013-02-05 14:59:00,64.1,46.6,29.96,WSW,247,1.0,6.0,53,0.00,,,0.00,Wunderground v.1.15,2013-02-05 20:59:00,
2013-02-05 15:04:00,63.8,46.8,29.96,SW,234,5.0,5.0,54,0.00,,,0.00,Wunderground v.1.15,2013-02-05 21:04:00,
2013-02-05 15:09:00,63.1,45.7,29.96,SW,224,2.0,7.0,53,0.00,,,0.00,Wunderground v.1.15,2013-02-05 21:09:00,
2013-02-05 15:15:00,63.6,46.1,29.96,West,279,1.0,3.0,53,0.00,,,0.00,Wunderground v.1.15,2013-02-05 21:15:00,
2013-02-05 15:20:00,63.6,45.6,29.96,West,280,2.0,4.0,52,0.00,,,0.00,Wunderground v.1.15,2013-02-05 21:20:00,
2013-02-05 15:25:00,63.2,45.8,29.97,West,275,3.0,5.0,53,0.00,,,0.00,Wunderground v.1.15,2013-02-05 21:25:00,
2013-02-05 15:30:00,63.0,46.6,29.97,WNW,289,1.0,5.0,55,0.00,,,0.00,Wunderground v.1.15,2013-02-05 21:30:00,
2013-02-05 15:35:00,63.0,46.1,29.97,WNW,300,1.0,4.0,54,0.00,,,0.00,Wunderground v.1.15,2013-02-05 21:35:00,
2013-02-05 15:40:00,62.8,45.9,29.97,West,275,3.0,4.0,54,0.00,,,0.00,Wunderground v.1.15,2013-02-05 21:40:00,
2013-02-05 15:45:00,62.7,45.3,29.97,WNW,292,2.0,5.0,53,0.00,,,0.00,Wunderground v.1.15,2013-02-05 21:45:00,
2013-02-05 15:51:00,62.5,45.1,29.97,NW,321,4.0,4.0,53,0.00,,,0.00,Wunderground v.1.15,2013-02-05 21:51:00,
2013-02-05 15:56:00,62.0,45.2,29.97,WNW,283,1.0,5.0,54,0.00,,,0.00,Wunderground v.1.15,2013-02-05 21:56:00,
2013-02-05 16:01:00,61.7,46.3,29.97,WSW,252,1.0,3.0,57,0.00,,,0.00,Wunderground v.1.15,2013-02-05 22:01:00,
2013-02-05 16:06:00,61.4,46.0,29.97,WNW,288,0.0,5.0,57,0.00,,,0.00,Wunderground v.1.15,2013-02-05 22:06:00,
2013-02-05 16:11:00,61.5,46.6,29.97,NW,319,1.0,3.0,58,0.00,,,0.00,Wunderground v.1.15,2013-02-05 22:11:00,
2013-02-05 16:16:00,61.3,46.4,29.97,WSW,250,2.0,4.0,58,0.00,,,0.00,Wunderground v.1.15,2013-02-05 22:16:00,
2013-02-05 16:21:00,61.1,46.7,29.97,West,271,2.0,3.0,59,0.00,,,0.00,Wunderground v.1.15,2013-02-05 22:21:00,
2013-02-05 16:26:00,60.8,46.8,29.97,WNW,282,1.0,3.0,60,0.00,,,0.00,Wunderground v.1.15,2013-02-05 22:26:00,
2013-02-05 16:31:00,60.6,47.1,29.98,West,272,1.0,1.0,61,0.00,,,0.00,Wunderground v.1.15,2013-02-05 22:31:00,
2013-02-05 16:36:00,60.5,46.1,29.98,WNW,291,2.0,3.0,59,0.00,,,0.00,Wunderground v.1.15,2013-02-05 22:36:00,
2013-02-05 16:41:00,60.3,45.9,29.98,WNW,291,0.0,2.0,59,0.00,,,0.00,Wunderground v.1.15,2013-02-05 22:41:00,
2013-02-05 16:46:00,59.9,46.0,29.98,WNW,291,2.0,3.0,60,0.00,,,0.00,Wunderground v.1.15,2013-02-05 22:46:00,
2013-02-05 16:51:00,59.6,45.7,29.98,WNW,290,1.0,1.0,60,0.00,,,0.00,Wunderground v.1.15,2013-02-05 22:51:00,
2013-02-05 16:56:00,59.3,45.8,29.98,WSW,244,0.0,4.0,61,0.00,,,0.00,Wunderground v.1.15,2013-02-05 22:56:00,
2013-02-05 17:01:00,59.0,45.6,29.98,WSW,244,0.0,2.0,61,0.00,,,0.00,Wunderground v.1.15,2013-02-05 23:01:00,
2013-02-05 17:07:00,58.9,45.9,29.98,WSW,244,1.0,2.0,62,0.00,,,0.00,Wunderground v.1.15,2013-02-05 23:07:00,
2013-02-05 17:12:00,58.6,45.6,29.98,WSW,245,0.0,1.0,62,0.00,,,0.00,Wunderground v.1.15,2013-02-05 23:12:00,
2013-02-05 17:17:00,58.2,45.2,29.97,WSW,242,1.0,3.0,62,0.00,,,0.00,Wunderground v.1.15,2013-02-05 23:17:00,
2013-02-05 17:22:00,58.1,45.6,29.98,WSW,242,2.0,2.0,63,0.00,,,0.00,Wunderground v.1.15,2013-02-05 23:22:00,
2013-02-05 17:28:00,57.6,45.1,29.98,WSW,242,0.0,2.0,63,0.00,,,0.00,Wunderground v.1.15,2013-02-05 23:28:00,
2013-02-05 17:33:00,57.2,45.1,29.98,WSW,242,0.0,1.0,64,0.00,,,0.00,Wunderground v.1.15,2013-02-05 23:33:00,
2013-02-05 17:38:00,56.8,44.7,29.98,WSW,242,0.0,1.0,64,0.00,,,0.00,Wunderground v.1.15,2013-02-05 23:38:00,
2013-02-05 17:43:00,56.5,44.9,29.98,WSW,242,0.0,0.0,65,0.00,,,0.00,Wunderground v.1.15,2013-02-05 23:43:00,
2013-02-05 17:48:00,56.1,44.9,29.98,WSW,242,0.0,0.0,66,0.00,,,0.00,Wunderground v.1.15,2013-02-05 23:48:00,
2013-02-05 17:53:00,55.9,44.7,29.98,WSW,242,0.0,0.0,66,0.00,,,0.00,Wunderground v.1.15,2013-02-05 23:53:00,
2013-02-05 17:58:00,55.6,44.8,29.99,WSW,242,0.0,0.0,67,0.00,,,0.00,Wunderground v.1.15,2013-02-05 23:58:00,
2013-02-05 18:03:00,55.3,44.5,29.99,WSW,242,0.0,0.0,67,0.00,,,0.00,Wunderground v.1.15,2013-02-06 00:03:00,
2013-02-05 18:08:00,55.0,44.6,29.99,WSW,242,0.0,0.0,68,0.00,,,0.00,Wunderground v.1.15,2013-02-06 00:08:00,
2013-02-05 18:14:00,54.7,44.7,29.99,WSW,242,0.0,0.0,69,0.00,,,0.00,Wunderground v.1.15,2013-02-06 00:14:00,
2013-02-05 18:19:00,54.5,44.9,29.99,WSW,242,0.0,0.0,70,0.00,,,0.00,Wunderground v.1.15,2013-02-06 00:19:00,
2013-02-05 18:24:00,54.2,45.0,29.99,WSW,242,0.0,0.0,71,0.00,,,0.00,Wunderground v.1.15,2013-02-06 00:24:00,
2013-02-05 18:29:00,54.0,44.8,30.00,WSW,242,0.0,0.0,71,0.00,,,0.00,Wunderground v.1.15,2013-02-06 00:29:00,
2013-02-05 18:34:00,53.8,45.0,30.00,WSW,242,0.0,0.0,72,0.00,,,0.00,Wunderground v.1.15,2013-02-06 00:34:00,
2013-02-05 18:39:00,53.5,44.7,30.00,WSW,242,0.0,0.0,72,0.00,,,0.00,Wunderground v.1.15,2013-02-06 00:39:00,
2013-02-05 18:44:00,53.3,44.9,30.00,WSW,242,0.0,0.0,73,0.00,,,0.00,Wunderground v.1.15,2013-02-06 00:44:00,
2013-02-05 18:49:00,53.0,44.9,30.00,WSW,242,0.0,0.0,74,0.00,,,0.00,Wunderground v.1.15,2013-02-06 00:49:00,
2013-02-05 18:54:00,52.8,44.7,30.00,WSW,242,0.0,0.0,74,0.00,,,0.00,Wunderground v.1.15,2013-02-06 00:54:00,
2013-02-05 18:59:00,52.6,44.9,30.00,WSW,242,0.0,0.0,75,0.00,,,0.00,Wunderground v.1.15,2013-02-06 00:59:00,
2013-02-05 19:04:00,52.3,44.6,30.00,WSW,242,0.0,0.0,75,0.00,,,0.00,Wunderground v.1.15,2013-02-06 01:04:00,
2013-02-05 19:09:00,51.9,44.6,30.00,WSW,242,0.0,0.0,76,0.00,,,0.00,Wunderground v.1.15,2013-02-06 01:09:00,
2013-02-05 19:14:00,51.5,44.5,30.00,WSW,242,0.0,0.0,77,0.00,,,0.00,Wunderground v.1.15,2013-02-06 01:14:00,
2013-02-05 19:20:00,51.3,44.3,30.01,WSW,242,0.0,0.0,77,0.00,,,0.00,Wunderground v.1.15,2013-02-06 01:20:00,
2013-02-05 19:25:00,51.2,44.6,30.01,WSW,242,0.0,0.0,78,0.00,,,0.00,Wunderground v.1.15,2013-02-06 01:25:00,
2013-02-05 19:30:00,51.0,44.4,30.01,WSW,242,0.0,0.0,78,0.00,,,0.00,Wunderground v.1.15,2013-02-06 01:30:00,
2013-02-05 19:36:00,50.7,44.4,30.01,WSW,242,0.0,0.0,79,0.00,,,0.00,Wunderground v.1.15,2013-02-06 01:36:00,
2013-02-05 19:41:00,50.5,44.6,30.01,WSW,242,0.0,0.0,80,0.00,,,0.00,Wunderground v.1.15,2013-02-06 01:41:00,
2013-02-05 19:46:00,50.3,44.4,30.02,WSW,242,0.0,0.0,80,0.00,,,0.00,Wunderground v.1.15,2013-02-06 01:46:00,
2013-02-05 19:50:00,50.2,44.3,30.02,WSW,242,0.0,0.0,80,0.00,,,0.00,Wunderground v.1.15,2013-02-06 01:50:00,
2013-02-05 19:55:00,50.1,44.5,30.02,WSW,242,0.0,0.0,81,0.00,,,0.00,Wunderground v.1.15,2013-02-06 01:55:00,
2013-02-05 20:00:00,50.2,44.9,30.02,WSW,242,0.0,0.0,82,0.00,,,0.00,Wunderground v.1.15,2013-02-06 02:00:00,
2013-02-05 20:06:00,50.3,44.7,30.02,WSW,242,0.0,0.0,81,0.00,,,0.00,Wunderground v.1.15,2013-02-06 02:06:00,
2013-02-05 20:11:00,50.2,44.6,30.02,WSW,242,0.0,0.0,81,0.00,,,0.00,Wunderground v.1.15,2013-02-06 02:11:00,
2013-02-05 20:16:00,50.0,44.7,30.02,WSW,242,0.0,0.0,82,0.00,,,0.00,Wunderground v.1.15,2013-02-06 02:16:00,
2013-02-05 20:21:00,49.9,44.6,30.02,WSW,242,0.0,0.0,82,0.00,,,0.00,Wunderground v.1.15,2013-02-06 02:21:00,
2013-02-05 20:26:00,49.6,44.0,30.02,WSW,242,0.0,1.0,81,0.00,,,0.00,Wunderground v.1.15,2013-02-06 02:26:00,
2013-02-05 20:31:00,49.0,43.7,30.03,WSW,242,0.0,0.0,82,0.00,,,0.00,Wunderground v.1.15,2013-02-06 02:31:00,
2013-02-05 20:36:00,48.8,44.2,30.03,WSW,242,0.0,0.0,84,0.00,,,0.00,Wunderground v.1.15,2013-02-06 02:36:00,
2013-02-05 20:41:00,48.7,44.1,30.03,WSW,242,0.0,0.0,84,0.00,,,0.00,Wunderground v.1.15,2013-02-06 02:41:00,
2013-02-05 20:46:00,48.6,44.0,30.03,WSW,242,0.0,0.0,84,0.00,,,0.00,Wunderground v.1.15,2013-02-06 02:46:00,
2013-02-05 20:51:00,48.5,44.2,30.03,WSW,242,0.0,0.0,85,0.00,,,0.00,Wunderground v.1.15,2013-02-06 02:51:00,
2013-02-05 20:56:00,48.5,44.2,30.03,WSW,242,0.0,0.0,85,0.00,,,0.00,Wunderground v.1.15,2013-02-06 02:56:00,
2013-02-05 21:01:00,48.5,44.2,30.03,WSW,242,0.0,0.0,85,0.00,,,0.00,Wunderground v.1.15,2013-02-06 03:01:00,
2013-02-05 21:06:00,48.3,43.7,30.04,WSW,242,0.0,0.0,84,0.00,,,0.00,Wunderground v.1.15,2013-02-06 03:06:00,
2013-02-05 21:11:00,47.8,43.2,30.04,WSW,242,0.0,0.0,84,0.00,,,0.00,Wunderground v.1.15,2013-02-06 03:11:00,
2013-02-05 21:16:00,47.3,43.0,30.04,WSW,242,0.0,0.0,85,0.00,,,0.00,Wunderground v.1.15,2013-02-06 03:16:00,
2013-02-05 21:21:00,47.0,43.3,30.04,WSW,242,0.0,0.0,87,0.00,,,0.00,Wunderground v.1.15,2013-02-06 03:21:00,
2013-02-05 21:26:00,46.9,43.2,30.04,WSW,242,0.0,0.0,87,0.00,,,0.00,Wunderground v.1.15,2013-02-06 03:26:00,
2013-02-05 21:32:00,46.9,43.5,30.04,WSW,242,0.0,0.0,88,0.00,,,0.00,Wunderground v.1.15,2013-02-06 03:32:00,
2013-02-05 21:37:00,46.9,43.5,30.04,WSW,242,0.0,0.0,88,0.00,,,0.00,Wunderground v.1.15,2013-02-06 03:37:00,
2013-02-05 21:42:00,46.8,43.1,30.04,WSW,242,0.0,0.0,87,0.00,,,0.00,Wunderground v.1.15,2013-02-06 03:42:00,
2013-02-05 21:47:00,46.5,42.8,30.04,WSW,242,0.0,0.0,87,0.00,,,0.00,Wunderground v.1.15,2013-02-06 03:47:00,
2013-02-05 21:53:00,46.0,42.6,30.04,WSW,242,0.0,0.0,88,0.00,,,0.00,Wunderground v.1.15,2013-02-06 03:53:00,
2013-02-05 21:58:00,45.6,42.3,30.05,WSW,242,0.0,0.0,88,0.00,,,0.00,Wunderground v.1.15,2013-02-06 03:58:00,
2013-02-05 22:03:00,45.2,42.2,30.05,WSW,242,0.0,0.0,89,0.00,,,0.00,Wunderground v.1.15,2013-02-06 04:03:00,
2013-02-05 22:08:00,45.1,42.3,30.05,WSW,242,0.0,0.0,90,0.00,,,0.00,Wunderground v.1.15,2013-02-06 04:08:00,
2013-02-05 22:14:00,45.1,42.6,30.04,WSW,242,0.0,0.0,91,0.00,,,0.00,Wunderground v.1.15,2013-02-06 04:14:00,
2013-02-05 22:19:00,45.3,42.8,30.05,WSW,242,0.0,0.0,91,0.00,,,0.00,Wunderground v.1.15,2013-02-06 04:19:00,
2013-02-05 22:24:00,45.4,42.6,30.05,WSW,242,0.0,0.0,90,0.00,,,0.00,Wunderground v.1.15,2013-02-06 04:24:00,
2013-02-05 22:29:00,45.5,42.7,30.05,WSW,242,0.0,0.0,90,0.00,,,0.00,Wunderground v.1.15,2013-02-06 04:29:00,
2013-02-05 22:34:00,45.5,42.7,30.05,WSW,242,0.0,0.0,90,0.00,,,0.00,Wunderground v.1.15,2013-02-06 04:34:00,
2013-02-05 22:39:00,45.7,43.2,30.05,WSW,242,0.0,0.0,91,0.00,,,0.00,Wunderground v.1.15,2013-02-06 04:39:00,
2013-02-05 22:44:00,45.8,43.3,30.05,WSW,242,0.0,0.0,91,0.00,,,0.00,Wunderground v.1.15,2013-02-06 04:44:00,
2013-02-05 22:49:00,45.8,43.0,30.05,WSW,242,0.0,0.0,90,0.00,,,0.00,Wunderground v.1.15,2013-02-06 04:49:00,
2013-02-05 22:54:00,45.8,43.0,30.05,WSW,242,0.0,0.0,90,0.00,,,0.00,Wunderground v.1.15,2013-02-06 04:54:00,
2013-02-05 23:05:00,46.1,43.6,30.05,WSW,242,1.0,1.0,91,0.00,,,0.00,Wunderground v.1.15,2013-02-06 05:05:00,
2013-02-05 23:06:00,46.1,43.6,30.05,WSW,242,1.0,1.0,91,0.00,,,0.00,Wunderground v.1.15,2013-02-06 05:06:00,
2013-02-05 23:11:00,46.0,43.5,30.05,WSW,242,0.0,1.0,91,0.00,,,0.00,Wunderground v.1.15,2013-02-06 05:11:00,
2013-02-05 23:16:00,46.0,43.5,30.05,WSW,242,0.0,0.0,91,0.00,,,0.00,Wunderground v.1.15,2013-02-06 05:16:00,
2013-02-05 23:26:00,46.3,44.1,30.05,WSW,242,0.0,0.0,92,0.00,,,0.00,Wunderground v.1.15,2013-02-06 05:26:00,
2013-02-05 23:31:00,46.0,43.2,30.05,WSW,242,0.0,0.0,90,0.00,,,0.00,Wunderground v.1.15,2013-02-06 05:31:00,
2013-02-05 23:36:00,45.1,42.1,30.05,WSW,242,0.0,0.0,89,0.00,,,0.00,Wunderground v.1.15,2013-02-06 05:36:00,
2013-02-05 23:41:00,44.5,41.7,30.05,WSW,242,0.0,1.0,90,0.00,,,0.00,Wunderground v.1.15,2013-02-06 05:41:00,
2013-02-05 23:46:00,44.0,41.3,30.05,WSW,242,0.0,0.0,90,0.00,,,0.00,Wunderground v.1.15,2013-02-06 05:46:00,
2013-02-05 23:51:00,43.6,41.1,30.06,WSW,242,0.0,0.0,91,0.00,,,0.00,Wunderground v.1.15,2013-02-06 05:51:00,
2013-02-05 23:56:00,43.4,40.9,30.05,WSW,242,0.0,0.0,91,0.00,,,0.00,Wunderground v.1.15,2013-02-06 05:56:00,